Weather in Samarkand

Uzbekistan     39˚39′16″N   66˚58′07″E
temp.,
°C
wind,
m/s
gust,
m/s
humid.,
%
clouds,
%
prec.,
mm/h
press.,
hPa
HPBL,
m
30 november, mon
mon3023:00−2˚e45811 0.0 1034183
02:00−2˚ese46782 0.0 1032172
05:00−2˚ese467651 0.0 1031158
08:00−2˚ese4677100 0.0 1030169
11:00+2˚ese4568100 0.0 1029271
14:00+3˚e3566100 0.0 1026302
17:00+1˚ese3473100 0.0 1027144
20:00+1˚e347099 0.0 1026109
1 december, tue
tue123:00+1˚e346494 0.0 102796
02:00+3˚ssw1255100 0.1 102636
05:00+2˚ese3487100 2.6 102791
08:00+4˚se348786 0.1 102672
11:00+8˚ese227568 0.1 1026123
14:00+11˚nne11610 0.0 1024316
17:00+8˚ne11650 0.0 102426
20:00+6˚se127136 0.0 102622
2 december, wed
wed223:00+5˚se117568 0.0 102522
02:00+5˚se117467 0.0 102522
05:00+4˚ese127384 0.0 102522
08:00+5˚ese1271100 0.0 102622
11:00+9˚ene0055100 0.0 102678
14:00+11˚nnw1147100 0.0 1024231
17:00+9˚e235693 0.0 102456
20:00+8˚ene236766 0.0 102527
3 december, thu
thu323:00+7˚ene117775 0.0 102424
02:00+6˚sse1180100 0.0 102424
05:00+6˚se2282100 0.0 102427
08:00+6˚ese1183100 0.0 102523
11:00+9˚e1166100 0.0 1024131
14:00+11˚nnw1156100 0.0 1022271
17:00+9˚ese1264100 0.1 102259
20:00+8˚se1289100 1.5 1023101
4 december, fri
fri423:00+7˚wsw2388100 4.6 1023187
02:00+6˚w3589100 3.6 1024371
05:00+6˚w3589100 6.3 1025407
08:00+5˚wnw4686100 1.9 1027447
11:00+5˚w5786100 3.1 1028518
14:00+5˚w5881100 0.2 1028572
17:00+5˚w5770100 0.3 1029584
20:00+4˚wnw4766100 0.0 1030479